DW7251 Weather Reports


Display with metric or nautical units.
time (UTC)temp
F
wind
direction
speed
MPH
gust
MPH
rain 1hr
in
rain 24hr
in
rain mn
in
humidity
%
barometer
mb
20260507215004 56 291 2.0 9.0 0.00 0.48 0.00 89 1021.0
20260507214445 56 255 2.0 9.0 0.00 0.48 0.00 89 1020.9
20260507213926 56 41 3.0 9.0 0.00 0.49 0.00 89 1020.9
20260507213410 56 288 4.0 9.0 0.00 0.51 0.00 89 1020.7
20260507212916 56 33 4.0 11.0 0.00 0.52 0.00 89 1020.7
20260507211726 56 229 5.0 11.0 0.00 0.56 0.00 89 1020.5
20260507211227 56 46 5.0 11.0 0.00 0.59 0.00 88 1020.5
20260507210724 56 270 4.0 10.0 0.00 0.59 0.00 88 1020.3
20260507210228 57 37 4.0 13.0 0.00 0.59 0.00 88 1020.4
20260507205719 57 9 4.0 13.0 0.00 0.62 0.00 88 1020.3
20260507205208 57 34 5.0 13.0 0.00 0.64 0.00 88 1020.4
20260507204709 57 272 4.0 13.0 0.00 0.65 0.00 88 1020.3
20260507204155 57 359 4.0 11.0 0.00 0.66 0.00 88 1020.2
20260507203638 57 33 5.0 11.0 0.00 0.66 0.00 88 1020.2
20260507203127 57 293 5.0 11.0 0.00 0.68 0.00 88 1020.2
20260507202615 57 20 5.0 11.0 0.00 0.69 0.00 87 1020.3
20260507202117 57 21 4.0 11.0 0.00 0.69 0.00 87 1020.2
20260507201613 57 314 4.0 11.0 0.00 0.70 0.00 87 1020.2
20260507201114 57 312 5.0 12.0 0.00 0.70 0.00 87 1020.1
20260507200610 57 241 5.0 12.0 0.00 0.72 0.00 87 1020.1
20260507200115 57 274 5.0 13.0 0.00 0.74 0.00 87 1019.9
20260507195600 57 308 5.0 13.0 0.00 0.75 0.00 87 1019.9
20260507195100 57 242 5.0 15.0 0.00 0.77 0.00 87 1019.8
20260507194603 57 296 5.0 15.0 0.00 0.77 0.00 87 1019.7
20260507194057 57 75 6.0 15.0 0.00 0.77 0.00 87 1019.7
20260507193547 57 293 6.0 15.0 0.00 0.77 0.00 87 1019.7
20260507192414 57 276 5.0 12.0 0.00 0.79 0.00 88 1019.5
20260507191921 57 11 6.0 12.0 0.00 0.79 0.00 87 1019.5
20260507190748 57 224 5.0 12.0 0.00 0.79 0.00 87 1019.6
20260507190245 57 305 5.0 12.0 0.00 0.79 0.00 87 1019.5
20260507185725 57 267 5.0 12.0 0.00 0.79 0.00 87 1019.4
20260507185221 57 326 5.0 13.0 0.00 0.81 0.00 87 1019.4
20260507184729 57 304 5.0 13.0 0.00 0.81 0.00 87 1019.4
20260507184215 57 256 5.0 13.0 0.00 0.82 0.00 87 1019.3
20260507183712 57 305 5.0 13.0 0.00 0.83 0.00 87 1019.3
20260507183158 57 300 5.0 10.0 0.00 0.83 0.00 87 1019.2
20260507182708 57 222 4.0 10.0 0.00 0.83 0.00 87 1019.2
20260507182216 57 264 4.0 13.0 0.00 0.86 0.00 87 1019.1
20260507181720 57 24 4.0 13.0 0.00 0.90 0.00 87 1019.1
20260507181223 57 236 5.0 13.0 0.00 0.99 0.00 87 1019.0
20260507180059 57 224 5.0 12.0 0.00 0.99 0.00 87 1018.9
20260507175559 57 284 5.0 11.0 0.00 0.99 0.00 88 1018.9
20260507175056 57 313 5.0 11.0 0.00 0.99 0.00 87 1018.8
20260507173905 57 159 5.0 14.0 0.00 0.99 0.00 87 1018.8
20260507173414 56 288 6.0 14.0 0.00 0.99 0.00 87 1018.8
20260507172913 56 246 6.0 14.0 0.00 0.99 0.00 87 1018.9
20260507172414 56 235 5.0 13.0 0.00 0.99 0.00 87 1018.9
20260507171857 56 281 5.0 12.0 0.00 0.99 0.00 87 1018.8
20260507171404 56 238 5.0 12.0 0.00 0.99 0.00 87 1018.8
20260507170858 56 231 5.0 14.0 0.00 0.99 0.00 87 1018.9
20260507170355 56 54 5.0 14.0 0.00 0.99 0.00 87 1018.9
20260507165851 56 278 5.0 14.0 0.00 0.99 0.00 87 1018.9
20260507165337 56 205 6.0 14.0 0.00 0.99 0.00 87 1018.9
20260507164205 56 305 5.0 12.0 0.00 0.99 0.00 87 1018.9
20260507163645 56 259 5.0 12.0 0.00 0.99 0.00 87 1019.0
20260507162458 56 279 5.0 12.0 0.00 0.99 0.00 87 1019.0
20260507161940 56 77 5.0 11.0 0.00 0.99 0.00 87 1019.1
20260507160834 56 245 5.0 12.0 0.00 0.99 0.00 87 1019.1
20260507160328 56 248 6.0 12.0 0.00 0.99 0.00 87 1019.0
20260507155818 56 328 6.0 12.0 0.00 0.99 0.00 87 1019.0
20260507155324 56 296 5.0 12.0 0.00 0.99 0.00 87 1019.2
20260507154153 56 80 5.0 14.0 0.00 0.99 0.00 87 1019.2
20260507153657 56 298 5.0 14.0 0.00 0.99 0.00 87 1019.3
20260507153141 56 352 6.0 14.0 0.00 0.99 0.00 87 1019.2
20260507152634 56 315 6.0 13.0 0.00 0.99 0.00 86 1019.3
20260507152130 56 52 6.0 15.0 0.00 0.99 0.00 86 1019.4
20260507151627 56 295 6.0 15.0 0.00 0.99 0.00 87 1019.6
20260507151130 56 285 7.0 15.0 0.00 0.99 0.00 86 1019.5
20260507145950 56 326 7.0 13.0 0.00 0.99 0.00 86 1019.6
20260507145440 56 188 6.0 13.0 0.00 0.99 0.00 86 1019.6
20260507144923 56 298 5.0 14.0 0.00 0.99 0.00 86 1019.7
20260507144406 56 296 6.0 14.0 0.00 0.99 0.00 86 1019.7
20260507143908 56 298 6.0 14.0 0.00 0.99 0.00 86 1019.7
20260507142759 55 257 6.0 12.0 0.00 0.99 0.00 86 1019.8
20260507141619 55 59 5.0 15.0 0.00 0.99 0.00 85 1019.8
20260507141115 55 256 5.0 15.0 0.00 0.99 0.00 86 1019.9
20260507140606 55 255 7.0 15.0 0.00 0.99 0.00 85 1019.9
20260507140048 55 281 6.0 15.0 0.00 0.99 0.99 85 1020.0
20260507135539 55 286 6.0 12.0 0.00 0.99 0.99 85 1020.0
20260507135047 55 266 6.0 12.0 0.00 0.99 0.99 85 1019.9
20260507134555 55 311 6.0 17.0 0.00 0.99 0.99 85 1020.0
20260507134043 55 308 6.0 17.0 0.00 0.99 0.99 86 1020.1
20260507133544 55 258 6.0 17.0 0.00 0.99 0.99 86 1020.1
20260507133025 55 234 6.0 17.0 0.00 1.00 0.99 86 1020.2
20260507132526 55 293 6.0 17.0 0.00 1.00 0.99 86 1020.2
20260507132023 55 334 7.0 17.0 0.00 1.00 0.99 85 1020.3
20260507131524 55 284 7.0 17.0 0.00 1.00 0.99 85 1020.2
20260507131017 55 333 7.0 17.0 0.00 1.00 0.99 86 1020.5
20260507125849 54 286 6.0 13.0 0.00 1.00 0.99 85 1020.7
20260507125338 54 255 5.0 13.0 0.00 1.00 0.99 85 1020.7
20260507124830 54 248 5.0 12.0 0.00 1.00 0.99 85 1020.8
20260507124339 54 229 5.0 13.0 0.00 1.01 0.99 85 1020.8
20260507121929 54 289 7.0 15.0 0.00 1.02 0.99 85 1021.1
20260507121414 54 251 7.0 15.0 0.00 1.02 0.99 84 1021.2
20260507120912 54 275 6.0 18.0 0.00 1.02 0.99 84 1021.2
20260507120353 54 267 7.0 18.0 0.00 1.02 0.99 84 1021.2
20260507115222 54 274 7.0 18.0 0.00 1.02 0.99 84 1021.2
20260507114724 54 276 7.0 14.0 0.00 1.02 0.99 84 1021.2
20260507114231 54 302 7.0 14.0 0.00 1.02 0.99 84 1021.1
20260507113730 54 202 8.0 18.0 0.00 1.02 0.99 84 1021.2
20260507113223 54 304 7.0 18.0 0.00 1.02 0.99 83 1021.1
20260507112713 54 248 7.0 18.0 0.00 1.02 0.99 84 1021.1
20260507112221 54 253 7.0 18.0 0.00 1.02 0.99 83 1021.1
20260507111729 54 336 7.0 15.0 0.00 1.02 0.99 83 1021.1
20260507111237 54 293 7.0 15.0 0.00 1.02 0.99 83 1021.1
20260507110719 54 262 7.0 15.0 0.00 1.02 0.99 83 1021.2
20260507110212 54 353 7.0 15.0 0.00 1.02 0.99 84 1021.1
20260507105653 54 298 6.0 16.0 0.00 1.02 0.99 83 1021.0
20260507105151 54 241 7.0 16.0 0.00 1.03 0.99 84 1021.0
20260507104012 53 305 7.0 16.0 0.00 1.03 0.99 84 1021.2
20260507103519 53 317 7.0 17.0 0.00 1.03 0.99 84 1021.3
20260507102959 53 264 6.0 17.0 0.00 1.03 0.98 84 1021.3
20260507102458 53 302 6.0 17.0 0.00 1.03 0.98 84 1021.3
20260507101331 54 297 7.0 15.0 0.00 1.03 0.98 82 1021.6
20260507100830 54 255 6.0 15.0 0.00 1.03 0.98 81 1021.7
20260507100311 54 224 5.0 14.0 0.00 1.02 0.97 81 1021.6
20260507095810 54 8 6.0 14.0 0.00 1.02 0.97 80 1021.6
20260507095319 54 283 7.0 14.0 0.00 1.02 0.97 79 1021.7
20260507094812 54 244 7.0 12.0 0.00 1.02 0.97 79 1021.6
20260507094319 54 246 6.0 14.0 0.00 1.02 0.97 79 1021.6
20260507093808 54 256 5.0 14.0 0.00 1.02 0.97 79 1021.5
20260507093303 54 240 6.0 14.0 0.00 1.02 0.97 79 1021.5
20260507092757 55 338 6.0 14.0 0.00 1.02 0.97 79 1021.5
20260507092254 55 279 6.0 14.0 0.00 1.02 0.97 78 1021.4
20260507091750 55 32 6.0 14.0 0.00 1.03 0.97 78 1021.6
20260507091247 55 253 6.0 14.0 0.00 1.03 0.97 78 1021.5
20260507090130 55 203 5.0 12.0 0.00 1.03 0.97 77 1021.3
20260507085624 55 248 6.0 14.0 0.00 1.03 0.97 77 1021.3
20260507085123 55 269 5.0 14.0 0.00 1.03 0.97 77 1021.4
20260507084606 55 47 5.0 14.0 0.00 1.03 0.97 77 1021.2
20260507084116 55 275 5.0 14.0 0.00 1.03 0.97 77 1021.1
20260507082937 55 323 5.0 13.0 0.00 1.03 0.97 76 1021.1
20260507082430 55 253 5.0 12.0 0.00 1.03 0.97 76 1021.1
20260507081923 55 43 5.0 12.0 0.00 1.03 0.97 76 1021.0
20260507081405 55 254 5.0 10.0 0.00 1.03 0.97 76 1021.0
20260507080902 55 341 5.0 10.0 0.00 1.03 0.97 76 1021.0
20260507080356 55 272 4.0 11.0 0.00 1.03 0.97 76 1020.9
20260507075900 55 274 4.0 11.0 0.00 1.03 0.97 76 1020.9
20260507075349 55 79 5.0 11.0 0.00 1.03 0.97 76 1020.9
20260507074855 55 146 5.0 11.0 0.00 1.09 0.97 76 1020.9
20260507074356 55 151 5.0 12.0 0.00 1.14 0.97 75 1020.9
20260507073845 55 282 4.0 12.0 0.00 1.14 0.97 75 1020.9
20260507073338 55 194 4.0 12.0 0.00 1.14 0.96 76 1020.8
20260507072839 55 88 3.0 12.0 0.00 1.14 0.96 76 1020.8
20260507072337 55 112 4.0 10.0 0.00 1.15 0.96 76 1020.7
20260507071842 55 252 4.0 9.0 0.00 1.15 0.96 75 1020.8
20260507071335 55 37 4.0 9.0 0.00 1.15 0.96 75 1020.7
20260507070826 55 253 3.0 9.0 0.00 1.15 0.96 74 1020.7
20260507070311 55 29 3.0 11.0 0.00 1.15 0.96 76 1020.6
20260507065755 55 122 4.0 11.0 0.00 1.15 0.96 76 1020.6
20260507065259 55 227 5.0 11.0 0.00 1.15 0.96 75 1020.6
20260507064800 55 217 5.0 11.0 0.00 1.15 0.96 76 1020.7
20260507064249 55 295 5.0 11.0 0.00 1.15 0.96 78 1020.7
20260507063735 55 272 4.0 11.0 0.00 1.15 0.96 79 1020.7
20260507063228 54 231 2.0 9.0 0.00 1.15 0.96 80 1020.7
20260507062709 54 290 1.0 5.0 0.00 1.15 0.96 81 1020.7
20260507062211 54 270 0.0 5.0 0.00 1.15 0.96 82 1020.8
20260507061013 53 310 1.0 7.0 0.00 1.15 0.96 82 1020.9
20260507055846 53 208 4.0 10.0 0.00 1.15 0.96 82 1021.0
20260507055329 53 210 5.0 11.0 0.00 1.15 0.96 82 1021.0
20260507054812 53 147 5.0 11.0 0.00 1.15 0.96 83 1021.1
20260507054257 53 219 5.0 11.0 0.00 1.15 0.96 83 1021.1
20260507053739 53 155 5.0 11.0 0.00 1.15 0.96 83 1021.0
20260507053243 53 229 4.0 9.0 0.00 1.15 0.96 83 1021.1
20260507052730 53 134 5.0 12.0 0.00 1.15 0.96 82 1021.1
20260507052221 53 262 6.0 12.0 0.00 1.15 0.96 82 1021.1
20260507051720 53 169 6.0 12.0 0.00 1.15 0.96 82 1021.2
20260507051205 53 152 4.0 12.0 0.00 1.15 0.96 82 1021.0
20260507050648 52 46 2.0 7.0 0.00 1.15 0.96 82 1021.0
20260507050133 52 36 2.0 5.0 0.00 1.15 0.96 83 1020.9
20260507045618 52 31 2.0 5.0 0.03 1.15 0.96 83 1020.9
20260507045111 52 343 2.0 8.0 0.04 1.15 0.96 83 1021.0
20260507044617 52 16 3.0 8.0 0.09 1.15 0.96 82 1020.9
20260507043506 53 44 3.0 8.0 0.00 1.14 0.95 81 1021.2
20260507042350 53 51 2.0 8.0 0.00 1.14 0.95 82 1021.0
20260507041211 52 319 3.0 13.0 0.00 1.14 0.95 83 1021.0
20260507040056 53 91 5.0 13.0 0.07 1.14 0.95 83 1021.1
20260507035605 53 174 3.0 11.0 0.31 1.14 0.95 83 1021.1
20260507035057 53 118 2.0 6.0 0.00 1.12 0.93 83 1021.0
20260507034556 53 124 2.0 7.0 0.00 1.12 0.93 84 1021.0
20260507034106 53 350 2.0 7.0 0.00 1.12 0.93 85 1021.1
20260507032330 52 25 2.0 8.0 0.00 1.12 0.93 86 1021.1
20260507031823 51 262 2.0 7.0 0.00 1.12 0.93 85 1021.3
20260507031310 51 118 2.0 7.0 0.00 1.12 0.93 86 1021.2
20260507030754 51 118 3.0 16.0 0.03 1.12 0.93 86 1021.4
20260507030247 50 23 4.0 16.0 0.06 1.12 0.93 85 1021.4
20260507025730 50 161 6.0 16.0 0.09 1.12 0.93 84 1021.6
20260507025238 51 155 5.0 16.0 0.22 1.11 0.92 83 1021.6
20260507024730 52 286 2.0 8.0 0.00 1.09 0.90 84 1021.5
20260507024219 51 118 2.0 7.0 0.03 1.08 0.89 84 1021.5
20260507023708 51 247 2.0 7.0 0.05 1.08 0.89 85 1021.4
20260507022532 51 100 4.0 13.0 0.16 1.07 0.88 83 1021.6
20260507022028 52 240 4.0 13.0 0.05 1.06 0.87 83 1021.5
20260507020847 52 331 5.0 13.0 0.00 1.05 0.86 83 1021.4
20260507020334 52 84 4.0 11.0 0.00 1.04 0.85 83 1021.5
20260507015201 52 80 4.0 11.0 0.00 1.04 0.85 85 1021.3
20260507014704 51 191 4.0 11.0 0.00 1.04 0.85 85 1021.3
20260507014203 51 99 4.0 11.0 0.00 1.04 0.85 86 1021.3
20260507013658 50 13 5.0 13.0 0.00 1.04 0.85 86 1021.4
20260507013152 50 325 5.0 13.0 0.03 1.04 0.85 86 1021.4
20260507012653 49 165 5.0 13.0 0.04 1.04 0.85 87 1021.5
20260507012157 49 264 5.0 13.0 0.10 1.04 0.85 86 1021.6
20260507011659 49 237 4.0 10.0 0.03 1.03 0.85 87 1021.7
20260507011143 48 222 3.0 10.0 0.05 1.03 0.84 86 1021.6
20260507010039 48 59 3.0 13.0 0.36 1.02 0.83 86 1021.6
20260507005534 48 309 4.0 13.0 0.00 0.99 0.81 86 1021.4
20260507005035 49 2 5.0 13.0 0.00 0.99 0.80 86 1021.3
20260507004518 49 294 4.0 12.0 0.00 0.99 0.80 87 1021.2
20260507004020 49 37 5.0 12.0 0.03 0.99 0.80 87 1021.3
20260507002245 48 297 5.0 13.0 0.06 0.98 0.79 87 1021.4
20260507001727 48 118 4.0 13.0 0.22 0.98 0.79 87 1021.4
20260507001224 48 44 4.0 12.0 0.37 0.96 0.77 87 1021.5
20260507000721 49 61 3.0 8.0 0.57 0.92 0.74 88 1021.4
20260507000214 48 37 3.0 11.0 0.00 0.91 0.72 88 1021.1
20260506235722 48 357 4.0 11.0 0.00 0.91 0.72 87 1020.9
20260506235225 47 39 5.0 14.0 0.03 0.91 0.72 87 1020.9
20260506234713 48 240 6.0 14.0 0.04 0.91 0.72 87 1020.9
20260506234219 47 252 6.0 14.0 0.09 0.91 0.72 86 1021.0
20260506233719 48 260 5.0 14.0 0.33 0.90 0.71 85 1021.4
20260506233225 48 262 4.0 12.0 1.62 0.85 0.67 85 1021.5
20260506232720 48 331 3.0 9.0 0.00 0.81 0.62 85 1021.2
20260506231551 48 284 2.0 9.0 0.00 0.81 0.62 87 1020.7
20260506231046 47 271 3.0 9.0 0.00 0.81 0.62 87 1020.7
20260506230551 47 288 2.0 8.0 0.03 0.81 0.62 87 1020.8
20260506230053 46 76 3.0 11.0 0.05 0.81 0.62 86 1020.7
20260506225554 47 329 4.0 11.0 0.11 0.81 0.62 86 1020.6
20260506225037 47 219 5.0 14.0 0.24 0.81 0.62 85 1021.0
20260506224531 47 198 6.0 14.0 0.33 0.77 0.59 84 1021.1
20260506224035 48 262 6.0 16.0 0.06 0.74 0.55 85 1021.0
20260506223533 48 82 7.0 16.0 0.15 0.74 0.55 83 1020.7
20260506223037 48 289 6.0 16.0 0.37 0.73 0.54 83 1020.5
20260506222518 49 265 5.0 16.0 0.00 0.70 0.51 84 1020.1
20260506222024 48 291 6.0 14.0 0.00 0.70 0.51 85 1019.7
20260506221519 48 299 5.0 14.0 0.00 0.70 0.51 85 1019.7
20260506221004 48 291 5.0 14.0 0.00 0.70 0.51 85 1020.0
20260506220452 48 309 5.0 17.0 0.00 0.70 0.51 86 1020.1
20260506215935 47 318 4.0 17.0 0.03 0.70 0.51 86 1019.9
20260506215441 47 243 6.0 19.0 0.03 0.70 0.51 85 1019.8